Zurück zum Katalog

METEOR 2-5 DEB

LostPO
NORAD 28555·DEBRIS·🇷🇺 Russia

Gestartet Oct 31, 1979 von Plesetsk Cosmodrome

Loading…

Nächste Überflüge (nächste 24 Stunden)

TLE

VeraltetSource: Space-Track

Epoche: Jun 10, 2026, 22:36 UTC

1 28555U 79095D   26161.94186480  .00205958  00000-0  67282-2 0  9997
2 28555  81.1447 245.9708 0007615 279.0616  80.9758 15.30848760246895

Verfolge METEOR 2-5 DEB in Echtzeit mit AllMySat

Download on the App Store